Location: Sungai Anya
(2.6167°N, 114.0500°E)
Time: 19:27:50
(UTC+00:00)

Cosmos 2227 Rocket - Pass Details

Date: 19 October 2021
Orbit: 839 x 845 km, 71.0° (Epoch: 08 December)

Event Time Altitude Azimuth Distance (km) Brightness Sun altitude
Rises 10:22:16 0° 355° (N) 3,384 5.3 -3.8°
Reaches altitude 10° 10:24:47 10° 1° (N) 2,450 4.5 -4.4°
Maximum altitude 10:30:11 49° 74° (ENE) 1,078 2.4 -5.7°
Drops below altitude 10° 10:35:36 10° 148° (SSE) 2,454 4.4 -7.1°
Sets 10:38:07 0° 154° (SSE) 3,389 5.2 -7.7°
